CZ-2C R/B (44452 NORAD) Tracking and Keplerian Element Data

This shows tracking and keplerian element data for the satellite.

Feedback or suggestion? Click here.




ElementValue
Catalog44452
NameCZ-2C R/B
Epoch Orbit414
Epoch Day235.90314992
Epoch Year2019
RAAN160.1187
Inclination34.9799
Eccentricity0.0105128
Argument of Perigee298.5002
Mean Anonmoly60.5152
Mean Motion15.13647887
Decay Rate1.43E-06
L11 44452U 19045D 19235.90314992 .00000143 00000-0 84971-5 0 9997
L22 44452 34.9799 160.1187 0105128 298.5002 60.5152 15.13647887 4147

Live tracking and technical data element details for CZ-2C R/B (NORAD 44452). CZ-2C R/B can be tracked NOW for your location showing map with azimuth and elevation plus other details from your city location.

Track the satellite on the map from your city or location and see movement details for azimuth, elevation, latitude, longitude, range, height, and movement on the map or in text.







IsCatalogInMostPopularTable: catalog: 44452, numindb: 14
Update: records affected: 1



GetName: 44452 CZ-2C R/B

Hit Count: updated at: Wed, 23 Oct 2019 00:41:11 GMT